Weather History for Jackson, KY

Change the Weather History Date:

Friday, November 1, 2013

  Actual Average Record
Temperature  
Mean Temperature 63 °F 54 °F  
Max Temperature 72 °F 63 °F 81 °F (2004)
Min Temperature 54 °F 44 °F 30 °F (1993)
Degree Days  
Heating Degree Days 2 12  
Month to date heating degree days 2 12  
Since 1 July heating degree days 272 309  
Cooling Degree Days 0 0  
Month to date cooling degree days 0 0  
Year to date cooling degree days 1069 1150  
Growing Degree Days 12 (Base 50)    
Moisture  
Dew Point 49 °F    
Average Humidity 66    
Maximum Humidity 93    
Minimum Humidity 39    
Precipitation  
Precipitation 0.38 in 0.13 in 0.59 in (1997)
Month to date precipitation 0.38 0.13  
Year to date precipitation 47.00 40.33  
Snow  
Snow 0.00 in 0.00 in - ()
Month to date snowfall 0.0 0.0  
Since 1 July snowfall 0.1 0.1  
Since 1 September snowfall 0.1 0.1  
Snow Depth 0.00 in    
Sea Level Pressure  
Sea Level Pressure 29.71 in    
Wind  
Wind Speed 6 mph (WSW)    
Max Wind Speed 28 mph    
Max Gust Speed 47 mph    
Visibility 9 miles    
Events Rain    
T = Trace of Precipitation, MM = Missing Value Source: NWS Daily Summary

Daily Weather History Graph

Daily Weather History Graph

Search for Another Location

Airport:

Trip Planner

Search our weather history database for the weather conditions in past years. The results will help you decide how hot, cold, wet, or windy it might be!

Date:

Astronomy

Nov. 01, 2013 Rise Set
Actual Time 7:58 AM EDT 6:34 PM EDT
Civil Twilight 7:31 AM EDT 7:01 PM EDT
Nautical Twilight 7:00 AM EDT 7:32 PM EDT
Astronomical Twilight 6:29 AM EDT 8:03 PM EDT
Moon 5:51 AM EDT (11/1) 5:25 PM EDT (11/1)
Length of Visible Light 11h 30m
Length of Day
10h 36m
Waning Crescent, 4% of the Moon is Illuminated
Nov 1
Waning Crescent
Nov 3
New
Nov 10
First Quarter
Nov 17
Full
Nov 25
Last Quarter

Hourly Weather History & Observations

Time (EDT) Temp. Dew Point Humidity Pressure Visibility Wind Dir Wind Speed Gust Speed Precip Events Conditions
12:53 AM 71.1 °F 57.0 °F 61% 29.53 in 10.0 mi Variable 6.9 mph 25.3 mph 0.00 in   Mostly Cloudy
1:53 AM 71.1 °F 57.9 °F 63% 29.56 in 10.0 mi SW 11.5 mph 26.5 mph N/A   Overcast
2:41 AM 60.8 °F 55.4 °F 82% 29.64 in 1.5 mi West 27.6 mph 47.2 mph 0.06 in Rain Heavy Rain
2:53 AM 57.9 °F 55.0 °F 90% 29.61 in 2.0 mi WSW 11.5 mph 34.5 mph 0.24 in Rain Heavy Rain
3:22 AM 57.2 °F 55.4 °F 94% 29.63 in 6.0 mi WSW 8.1 mph 20.7 mph 0.11 in Rain Light Rain
3:53 AM 57.0 °F 55.0 °F 93% 29.62 in 5.0 mi Variable 3.5 mph - 0.13 in Rain Light Rain
4:53 AM 57.9 °F 55.9 °F 93% 29.64 in 10.0 mi Variable 4.6 mph - 0.01 in   Mostly Cloudy
5:01 AM 57.2 °F 55.4 °F 94% 29.67 in 10.0 mi Variable 4.6 mph - N/A   Mostly Cloudy
5:12 AM 57.2 °F 55.4 °F 94% 29.68 in 10.0 mi Variable 3.5 mph - N/A   Overcast
5:24 AM 57.2 °F 55.4 °F 94% 29.68 in 10.0 mi West 6.9 mph - N/A   Overcast
5:48 AM 57.2 °F 53.6 °F 88% 29.70 in 10.0 mi West 11.5 mph 20.7 mph N/A   Overcast
5:53 AM 57.0 °F 53.1 °F 87% 29.68 in 10.0 mi WSW 9.2 mph 20.7 mph N/A   Mostly Cloudy
6:01 AM 57.2 °F 53.6 °F 88% 29.71 in 10.0 mi Variable 5.8 mph 21.9 mph N/A   Scattered Clouds
6:44 AM 55.4 °F 51.8 °F 88% 29.73 in 10.0 mi WSW 6.9 mph - N/A   Mostly Cloudy
6:53 AM 55.9 °F 52.0 °F 87% 29.70 in 10.0 mi Variable 5.8 mph - N/A   Overcast
7:16 AM 55.4 °F 51.8 °F 88% 29.74 in 10.0 mi Variable 5.8 mph - N/A   Overcast
7:53 AM 55.0 °F 51.1 °F 86% 29.73 in 10.0 mi Variable 4.6 mph - N/A   Overcast
8:13 AM 53.6 °F 50.0 °F 88% 29.76 in 10.0 mi Variable 4.6 mph - N/A   Scattered Clouds
8:53 AM 55.0 °F 50.0 °F 83% 29.75 in 10.0 mi Variable 4.6 mph - N/A   Scattered Clouds
9:12 AM 55.4 °F 48.2 °F 77% 29.79 in 10.0 mi Variable 4.6 mph - N/A   Mostly Cloudy
9:21 AM 55.4 °F 48.2 °F 77% 29.79 in 10.0 mi WSW 8.1 mph - N/A   Scattered Clouds
9:53 AM 55.9 °F 48.9 °F 77% 29.77 in 10.0 mi Calm Calm - N/A   Mostly Cloudy
10:02 AM 55.4 °F 50.0 °F 82% 29.79 in 10.0 mi Variable 3.5 mph - N/A   Mostly Cloudy
10:33 AM 55.4 °F 51.8 °F 88% 29.79 in 10.0 mi Calm Calm - N/A   Mostly Cloudy
10:53 AM 60.1 °F 52.0 °F 75% 29.76 in 10.0 mi Variable 4.6 mph - N/A   Overcast
11:33 AM 60.8 °F 50.0 °F 68% 29.79 in 10.0 mi Variable 5.8 mph - N/A   Mostly Cloudy
11:53 AM 62.1 °F 48.9 °F 62% 29.75 in 10.0 mi Variable 5.8 mph - N/A   Scattered Clouds
12:53 PM 64.0 °F 46.0 °F 52% 29.74 in 10.0 mi Variable 6.9 mph - N/A   Clear
1:53 PM 64.9 °F 43.0 °F 45% 29.71 in 10.0 mi WSW 8.1 mph 19.6 mph N/A   Clear
2:53 PM 68.0 °F 42.1 °F 39% 29.70 in 10.0 mi Variable 6.9 mph - N/A   Clear
3:53 PM 68.0 °F 42.1 °F 39% 29.69 in 10.0 mi Variable 4.6 mph - N/A   Partly Cloudy
4:53 PM 66.0 °F 41.0 °F 40% 29.69 in 10.0 mi Variable 6.9 mph 19.6 mph N/A   Scattered Clouds
5:53 PM 62.1 °F 41.0 °F 46% 29.70 in 10.0 mi Variable 4.6 mph - N/A   Partly Cloudy
6:53 PM 60.1 °F 39.9 °F 47% 29.72 in 10.0 mi WSW 5.8 mph - N/A   Clear
7:53 PM 57.0 °F 41.0 °F 55% 29.75 in 10.0 mi SW 3.5 mph - N/A   Clear
8:53 PM 57.0 °F 41.0 °F 55% 29.75 in 10.0 mi Calm Calm - N/A   Partly Cloudy
9:53 PM 57.0 °F 42.1 °F 57% 29.75 in 10.0 mi SW 3.5 mph - N/A   Overcast
10:53 PM 57.0 °F 42.1 °F 57% 29.75 in 10.0 mi SSW 4.6 mph - N/A   Overcast
11:53 PM 57.0 °F 42.1 °F 57% 29.75 in 10.0 mi SW 3.5 mph - N/A   Overcast